Weather reports worldwide

Advertisment
Frittenden, United Kingdom (99182): temperature & dewpoint: 17.03.2019 09:00:00 - 23.03.2019 09:00:00 (GMT)Frittenden, United Kingdom (99182): precipitation: 17.03.2019 09:00:00 - 23.03.2019 09:00:00 (GMT)
Date & Time tt [°C] td [°C] rr [mm]
23.03.2019 09:00:00 10,1 8,7 -
23.03.2019 08:00:00 8,6 7,9 0,0
23.03.2019 07:00:00 7,8 7,6 0,0
23.03.2019 06:00:00 7,2 7,0 0,0
23.03.2019 05:00:00 6,5 6,3 0,0
23.03.2019 04:00:00 6,1 5,9 0,0
23.03.2019 03:00:00 6,0 5,7 0,0
23.03.2019 02:00:00 6,4 5,7 0,0
23.03.2019 01:00:00 8,1 6,5 0,0
23.03.2019 00:00:00 8,8 7,0 0,0
22.03.2019 23:00:00 8,9 6,9 0,0
22.03.2019 22:00:00 9,2 6,9 0,0
22.03.2019 21:00:00 9,2 6,8 0,0
22.03.2019 20:00:00 9,3 6,7 0,0
22.03.2019 19:00:00 9,5 5,9 0,0
22.03.2019 18:00:00 9,8 6,6 0,0
22.03.2019 17:00:00 10,1 6,3 0,0
22.03.2019 16:00:00 10,4 6,8 0,0
22.03.2019 15:00:00 10,5 7,5 0,0
22.03.2019 14:00:00 10,4 7,3 0,0
22.03.2019 13:00:00 10,1 6,8 0,0
22.03.2019 12:00:00 10,0 7,3 0,0
22.03.2019 11:00:00 9,6 7,2 0,0
22.03.2019 10:00:00 9,2 7,2 0,0
22.03.2019 09:00:00 8,8 7,1 0,0
22.03.2019 08:00:00 8,5 7,1 0,0
22.03.2019 07:00:00 8,1 7,1 0,0
22.03.2019 06:00:00 7,9 6,7 0,0
22.03.2019 05:00:00 8,0 6,5 0,0
22.03.2019 04:00:00 8,2 6,4 0,0
22.03.2019 03:00:00 8,5 6,4 0,0
22.03.2019 02:00:00 8,8 6,8 0,0
22.03.2019 01:00:00 9,2 7,8 0,0
22.03.2019 00:00:00 9,5 8,0 0,0
21.03.2019 23:00:00 9,8 8,4 0,0
21.03.2019 22:00:00 9,9 8,5 0,0
21.03.2019 21:00:00 10,1 8,5 0,0
21.03.2019 20:00:00 10,3 8,1 0,0
21.03.2019 19:00:00 11,3 8,1 0,0
21.03.2019 18:00:00 12,0 8,0 0,0
21.03.2019 17:00:00 12,5 8,2 0,0
21.03.2019 16:00:00 12,6 8,2 0,0
21.03.2019 15:00:00 12,5 8,7 0,0
21.03.2019 14:00:00 12,3 8,1 0,0
21.03.2019 13:00:00 12,3 8,4 0,0
21.03.2019 12:00:00 11,9 8,2 0,0
21.03.2019 11:00:00 11,5 8,1 0,0
21.03.2019 10:00:00 10,8 7,6 0,0
21.03.2019 09:00:00 9,9 7,5 0,0
21.03.2019 08:00:00 9,5 7,4 0,0
21.03.2019 07:00:00 8,9 7,1 0,0
21.03.2019 06:00:00 8,6 6,8 0,0
21.03.2019 05:00:00 8,6 6,8 0,0
21.03.2019 04:00:00 8,6 6,8 0,0
21.03.2019 03:00:00 8,7 7,3 0,0
21.03.2019 02:00:00 8,6 7,4 0,0
21.03.2019 01:00:00 8,8 7,5 0,0
21.03.2019 00:00:00 9,0 7,6 0,0
20.03.2019 23:00:00 9,5 7,6 0,0
20.03.2019 22:00:00 9,8 7,5 0,0
20.03.2019 21:00:00 10,2 7,9 0,0
20.03.2019 20:00:00 10,3 7,8 0,0
20.03.2019 19:00:00 10,5 7,8 0,0
20.03.2019 18:00:00 11,3 8,2 0,0
20.03.2019 17:00:00 11,9 8,4 0,0
20.03.2019 16:00:00 12,5 8,6 0,0
20.03.2019 15:00:00 13,1 8,4 0,0
20.03.2019 14:00:00 13,2 9,2 0,0
20.03.2019 13:00:00 12,2 8,5 0,0
20.03.2019 12:00:00 11,8 8,7 0,0
20.03.2019 11:00:00 11,0 8,7 0,0
20.03.2019 10:00:00 10,5 8,7 0,0
20.03.2019 09:00:00 10,1 8,6 0,0
20.03.2019 08:00:00 9,7 9,2 0,0
20.03.2019 07:00:00 7,5 7,4 0,0
20.03.2019 06:00:00 7,0 6,9 0,0
20.03.2019 05:00:00 7,0 6,8 0,0
20.03.2019 04:00:00 6,9 6,7 0,0
20.03.2019 03:00:00 7,1 7,1 0,0
20.03.2019 02:00:00 6,5 6,4 0,0
20.03.2019 01:00:00 5,7 5,3 0,0
20.03.2019 00:00:00 6,5 6,1 0,0
19.03.2019 23:00:00 7,3 6,5 0,0
19.03.2019 22:00:00 8,3 7,0 0,0
19.03.2019 21:00:00 9,5 7,6 0,0
19.03.2019 20:00:00 9,8 7,3 0,0
19.03.2019 19:00:00 10,0 6,9 0,0
19.03.2019 18:00:00 10,2 6,2 0,0
19.03.2019 17:00:00 11,1 6,9 0,0
19.03.2019 16:00:00 11,3 7,4 0,0
19.03.2019 15:00:00 12,1 6,6 0,0
19.03.2019 14:00:00 11,8 6,4 0,0
19.03.2019 13:00:00 11,6 6,1 0,0
19.03.2019 12:00:00 11,9 6,6 0,0
19.03.2019 11:00:00 10,6 6,6 0,0
19.03.2019 10:00:00 9,5 6,9 0,0
19.03.2019 09:00:00 6,5 5,6 0,0
19.03.2019 08:00:00 4,0 4,0 0,0
19.03.2019 07:00:00 2,2 2,1 0,0
19.03.2019 06:00:00 1,4 1,3 0,0
19.03.2019 05:00:00 1,7 1,6 0,0
19.03.2019 04:00:00 0,6 0,5 0,0
19.03.2019 03:00:00 0,0 -0,2 0,0
19.03.2019 02:00:00 0,2 0,0 0,0
19.03.2019 01:00:00 0,9 0,6 0,0
19.03.2019 00:00:00 1,6 1,3 0,0
18.03.2019 23:00:00 2,2 1,8 0,0
18.03.2019 22:00:00 2,8 2,2 0,0
18.03.2019 21:00:00 4,1 3,5 0,0
18.03.2019 20:00:00 4,8 3,4 0,0
18.03.2019 19:00:00 6,6 4,3 0,0
18.03.2019 18:00:00 7,7 3,7 0,0
18.03.2019 17:00:00 8,5 3,4 0,0
18.03.2019 16:00:00 10,1 3,1 0,0
18.03.2019 15:00:00 9,8 3,7 0,0
18.03.2019 14:00:00 10,5 2,6 0,0
18.03.2019 13:00:00 11,5 3,7 0,0
18.03.2019 12:00:00 10,1 2,4 0,0
18.03.2019 11:00:00 9,5 2,7 0,0
18.03.2019 10:00:00 8,5 3,2 0,0
18.03.2019 09:00:00 6,9 3,4 0,0
18.03.2019 08:00:00 5,1 2,6 0,0
18.03.2019 07:00:00 4,0 1,9 0,0
18.03.2019 06:00:00 4,0 1,9 0,0
18.03.2019 05:00:00 4,3 2,3 0,0
18.03.2019 04:00:00 3,3 1,5 0,0
18.03.2019 03:00:00 4,6 2,5 0,0
18.03.2019 02:00:00 4,3 2,3 0,0
18.03.2019 01:00:00 4,9 2,9 0,0
18.03.2019 00:00:00 4,5 2,4 0,0
17.03.2019 23:00:00 5,2 2,5 0,2
17.03.2019 22:00:00 5,1 2,2 0,0
17.03.2019 21:00:00 5,1 2,1 0,0
17.03.2019 20:00:00 5,3 1,6 0,0
17.03.2019 19:00:00 4,1 2,0 0,0
17.03.2019 18:00:00 4,3 2,1 0,2
17.03.2019 17:00:00 4,2 2,5 0,2
17.03.2019 16:00:00 10,7 -1,0 0,0
17.03.2019 15:00:00 9,6 -2,5 0,0
17.03.2019 14:00:00 9,6 -0,3 0,0
17.03.2019 13:00:00 10,0 1,2 0,0
17.03.2019 12:00:00 8,2 -1,0 0,0
17.03.2019 11:00:00 8,1 0,7 0,0
17.03.2019 10:00:00 7,2 1,4 0,0
17.03.2019 09:00:00 6,8 2,5 0,0

tt = temperature
td = dewpoint
rr = precipitation

Next stations